Terminal Aerodrome Forecast
Issued by NWS Kansas City/Pleasant Hill, MO

Home | Current Version | Previous Version | Text Only | Print | Product List | Glossary On
Versions: 1 2 3 4 5 6 7 8 9 10 11 12 13 14 15 16 17
000
FTUS43 KEAX 202300
TAFMCI
TAF
KMCI 202320Z 2100/2124 20012KT P6SM BKN070 OVC150
     FM210900 20007KT 5SM -SHRA VCTS BKN025CB
     FM211500 28009KT 4SM -SHRA VCTS BKN015CB=

USA.gov is the U.S. government's official web portal to all federal, state and local government web resources and services.